Regional Weather Roundup
Issued by NWS Jackson, KY

Current Version | Previous Version | Text Only | Print | Product List | Glossary On
Versions: 1 2 3 4 5 6 7 8 9 10 11 12 13 14 15 16 17 18 19 20 21 22 23 24 25 26 27
000
ASUS43 KJKL 301110
RWRJKL

EAST KENTUCKY HOURLY WEATHER ROUNDUP
NATIONAL WEATHER SERVICE JACKSON KY
700 AM EDT FRI SEP 30 2022

NOTE: "FAIR" INDICATES FEW OR NO CLOUDS BELOW 12,000 FEET WITH
NO SIGNIFICANT WEATHER AND/OR OBSTRUCTIONS TO VISIBILITY.

* THESE REPORTS ARE NOT UNDER NWS QUALITY CONTROL AND MAY NOT
  REPORT WEATHER SUCH AS PRECIPITATION AND FOG.

KYZ079-080-083-085-087-088-110-112-115-119-120-301200
...EASTERN KENTUCKY...

CITY           SKY/WX    TMP DP  RH WIND       PRES   REMARKS
JACKSON        CLOUDY    46  44  93 CALM      30.20R
LONDON         MOCLDY    45  44  97 N3        30.18R
SOMERSET*      CLEAR     48  46  93 NE3       30.17R
WILLIAMSBURG*  FAIR      45  45 100 N3        30.17S
MIDDLESBORO*   FOG       42  42 100 CALM      30.18R VSB 1/4
HARLAN APT*    CLOUDY    44  44 100 CALM      30.17S VSB 3/4
PIKE CO APT*   FAIR      44  44 100 CALM      30.21R
BIG SANDY APT* PTSUNNY   43  43 100 NE6       30.22R
MOREHEAD APT*  MOSUNNY   46  43  87 E8        30.23S
ASHLAND*       PTCLDY    43  32  65 CALM      30.26S
$$

KYZ035-036-041-042-044-050-067-078-099-301200
...CENTRAL KENTUCKY...

CITY           SKY/WX    TMP DP  RH WIND       PRES   REMARKS
MT STERLING*   CLEAR     41  41 100 NE3       30.23S
FLEMING/MASON* CLEAR     44  42  95 E5        30.24S
DANVILLE*      CLEAR     43  41  93 CALM      30.22R
RICHMOND*        N/A     43  43 100 CALM      30.22S VSB 1
LEXINGTON      CLEAR     44  41  89 NE7       30.22R
FRANKFORT      CLEAR     46  43  89 N3        30.22S
LOUISVILLE     CLEAR     49  44  83 N8        30.23S
LEBANON*       FAIR      45  45 100 NE3       30.21R
GLASGOW*       CLEAR     46  45  97 NE6       30.17F
BOWLING GREEN  CLEAR     48  44  86 CALM      30.17F
$$

KYZ091>093-OHZ055-061-077-WVZ005-015-034-035-042-301200
...SOUTHERN OHIO/WEST VIRGINIA...

CITY           SKY/WX    TMP DP  RH WIND       PRES   REMARKS
COVINGTON      CLEAR     47  44  90 NE8       30.25F
COLUMBUS       CLEAR     44  41  89 NE5       30.28S
DAYTON         CLEAR     41  38  89 N8        30.30S
WILMINGTON     CLEAR     44  41  89 NE10      30.26S
HUNTINGTON     MOCLDY    45  43  93 N6        30.23S
CHARLESTON     FOG       42  42 100 NE3       30.23R VSB 1/4
BECKLEY        CLOUDY    47  42  83 E8        30.21S
BLUEFIELD      CLOUDY    43  42  97 E7        30.21R
LOGAN CO APT*  FAIR      46  46 100 NE5       30.21R
$$

VAZ002-007-008-TNZ017-027-036-066-071-301200
...SOUTHWEST VIRGINIA/EAST TENNESSEE...

CITY           SKY/WX    TMP DP  RH WIND       PRES   REMARKS
WISE*          CLOUDY    45  43  93 CALM      30.20R
JONESVILLE*    FAIR      39  39 100 CALM      30.16S
ABINGDON*      CLOUDY    49  44  83 E12G17    30.16S
BRISTOL        MOCLDY    51  44  77 NE5       30.14S
SEVIERVILLE*   SUNNY     43  43 100 CALM      30.12R
KNOXVILLE      PTCLDY    50  46  86 NE8       30.10R
LAFOLLETTE*    SUNNY     41  41 100 CALM      30.18S FOG
OAK RIDGE      CLEAR     52  46  80 CALM      30.13R
CROSSVILLE     CLOUDY    45  45 100 NE6       30.13S FOG
NASHVILLE      CLEAR     50  43  77 N6        30.15S
$$

...KEY TO REMARKS...
VSB - VISIBILITY IN MILES
WCI - WIND CHILL INDEX
HX  - HEAT INDEX

$$



USA.gov is the U.S. government's official web portal to all federal, state and local government web resources and services.